Location: Unspecified
(40.7945°N, 0.0000°E)
Time: 10:54:04
(UTC+00:00)

UWE-3 - Pass Details

Date: 19 August 2020
Orbit: 585 x 683 km, 97.6° (Epoch: 22 September)

Event Time Altitude Azimuth Distance (km) Brightness Sun altitude
Rises 04:01:04 0° 30° (NNE) 2,821 ? -13.5°
Reaches altitude 10° 04:03:48 10° 49° (NE) 1,921 ? -13.1°
Maximum altitude 04:06:42 18° 93° (E) 1,472 ? -12.6°
Drops below altitude 10° 04:09:35 10° 137° (SE) 1,934 ? -12.1°
Sets 04:12:21 0° 157° (SSE) 2,847 ? -11.6°
